Weather History for St. George, UT

Change the Weather History Date:

Saturday, January 4, 2014

  Actual Average Record
Temperature  
Mean Temperature 42 °F -  
Max Temperature 55 °F 49 °F 66 °F (1981)
Min Temperature 28 °F 25 °F 9 °F (1971)
Degree Days  
Heating Degree Days 24    
Moisture  
Dew Point 18 °F    
Average Humidity 46    
Maximum Humidity 80    
Minimum Humidity 23    
Precipitation  
Precipitation 0.00 in - - ()
Sea Level Pressure  
Sea Level Pressure 30.06 in    
Wind  
Wind Speed 4 mph (NE)    
Max Wind Speed 18 mph    
Max Gust Speed 31 mph    
Visibility 10 miles    
Events      
Averages and records for this station are not official NWS values.
T = Trace of Precipitation, MM = Missing Value Source: NWS Daily Summary

Daily Weather History Graph

Daily Weather History Graph

Search for Another Location

Airport:

Trip Planner

Search our weather history database for the weather conditions in past years. The results will help you decide how hot, cold, wet, or windy it might be!

Date:

Astronomy

Jan. 04, 2014 Rise Set
Actual Time 7:48 AM MST 5:30 PM MST
Civil Twilight 7:19 AM MST 5:59 PM MST
Nautical Twilight 6:47 AM MST 6:32 PM MST
Astronomical Twilight 6:15 AM MST 7:03 PM MST
Moon 10:02 AM MST (1/4) 9:48 PM MST (1/4)
Length of Visible Light 10h 40m
Length of Day
9h 42m
Waxing Crescent, 16% of the Moon is Illuminated
Jan 4
Waxing Crescent
Jan 7
First Quarter
Jan 15
Full
Jan 23
Last Quarter
Jan 30
New

Hourly Weather History & Observations

Time (MST) Temp. Windchill Dew Point Humidity Pressure Visibility Wind Dir Wind Speed Gust Speed Precip Events Conditions
12:15 AM 35.6 °F - 24.8 °F 65% 29.96 in 10.0 mi Calm Calm - N/A   Clear
12:35 AM 35.6 °F - 21.2 °F 56% 29.96 in 10.0 mi Calm Calm - N/A   Clear
12:55 AM 33.8 °F 30.8 °F 21.2 °F 60% 29.96 in 10.0 mi WNW 3.5 mph - N/A   Clear
1:15 AM 33.8 °F - 24.8 °F 70% 29.96 in 10.0 mi Calm Calm - N/A   Clear
1:35 AM 35.6 °F - 21.2 °F 56% 29.96 in 10.0 mi Calm Calm - N/A   Clear
1:55 AM 35.6 °F - 21.2 °F 56% 29.96 in 10.0 mi Calm Calm - N/A   Clear
2:15 AM 33.8 °F 30.8 °F 21.2 °F 60% 29.96 in 10.0 mi SSW 3.5 mph - N/A   Clear
2:35 AM 33.8 °F - 21.2 °F 60% 29.97 in 10.0 mi Calm Calm - N/A   Clear
2:55 AM 32.0 °F - 21.2 °F 64% 29.97 in 10.0 mi Calm Calm - N/A   Clear
3:15 AM 32.0 °F - 21.2 °F 64% 29.97 in 10.0 mi Calm Calm - N/A   Clear
3:35 AM 32.0 °F - 21.2 °F 64% 29.97 in 10.0 mi Calm Calm - N/A   Clear
3:55 AM 30.2 °F - 21.2 °F 69% 29.97 in 10.0 mi Calm Calm - N/A   Clear
4:15 AM 30.2 °F - 21.2 °F 69% 29.97 in 10.0 mi Calm Calm - N/A   Clear
4:35 AM 30.2 °F - 21.2 °F 69% 29.96 in 10.0 mi Calm Calm - N/A   Clear
4:55 AM 30.2 °F - 21.2 °F 69% 29.96 in 10.0 mi Calm Calm - N/A   Clear
5:15 AM 30.2 °F - 21.2 °F 69% 29.96 in 10.0 mi Calm Calm - N/A   Clear
5:35 AM 30.2 °F 25.4 °F 21.2 °F 69% 29.96 in 10.0 mi North 4.6 mph - N/A   Clear
5:55 AM 30.2 °F - 21.2 °F 69% 29.96 in 10.0 mi Calm Calm - N/A   Clear
6:15 AM 30.2 °F - 21.2 °F 69% 29.96 in 10.0 mi Calm Calm - N/A   Clear
6:35 AM 30.2 °F - 21.2 °F 69% 29.97 in 10.0 mi Calm Calm - N/A   Clear
6:55 AM 28.4 °F - 21.2 °F 74% 29.98 in 10.0 mi Calm Calm - N/A   Clear
7:15 AM 28.4 °F - 21.2 °F 74% 29.98 in 10.0 mi Calm Calm - N/A   Clear
7:35 AM 28.4 °F 22.2 °F 19.4 °F 69% 29.98 in 10.0 mi South 5.8 mph - N/A   Clear
7:55 AM 28.4 °F - 21.2 °F 74% 29.98 in 10.0 mi Calm Calm - N/A   Clear
8:15 AM 28.4 °F - 19.4 °F 69% 29.98 in 10.0 mi Calm Calm - N/A   Clear
8:35 AM 30.2 °F 26.7 °F 21.2 °F 69% 29.99 in 7.0 mi WNW 3.5 mph - N/A   Clear
8:55 AM 30.2 °F 22.6 °F 24.8 °F 80% 30.00 in 10.0 mi NNE 8.1 mph - N/A   Clear
9:15 AM 32.0 °F 28.7 °F 23.0 °F 69% 30.02 in 10.0 mi North 3.5 mph - N/A   Clear
9:35 AM 33.8 °F - 23.0 °F 65% 30.02 in 10.0 mi Calm Calm - N/A   Clear
9:55 AM 35.6 °F 31.7 °F 24.8 °F 65% 30.04 in 10.0 mi West 4.6 mph - N/A   Clear
10:15 AM 37.4 °F 34.9 °F 21.2 °F 52% 30.05 in 10.0 mi SSW 3.5 mph - N/A   Clear
10:35 AM 37.4 °F 32.1 °F 24.8 °F 60% 30.05 in 10.0 mi SSW 6.9 mph - N/A   Clear
10:55 AM 39.2 °F 35.0 °F 26.6 °F 61% 30.06 in 10.0 mi SSW 5.8 mph - N/A   Clear
11:15 AM 42.8 °F 38.6 °F 24.8 °F 49% 30.05 in 10.0 mi SSW 6.9 mph - N/A   Clear
11:35 AM 44.6 °F 41.4 °F 24.8 °F 46% 30.05 in 10.0 mi SSW 5.8 mph - N/A   Clear
11:55 AM 46.4 °F 43.5 °F 24.8 °F 43% 30.04 in 10.0 mi SSW 5.8 mph - N/A   Clear
12:15 PM 48.2 °F - 24.8 °F 40% 30.04 in 10.0 mi SSE 4.6 mph - N/A   Clear
12:35 PM 50.0 °F - 24.8 °F 37% 30.04 in 10.0 mi SSE 3.5 mph - N/A   Clear
12:55 PM 51.8 °F - 23.0 °F 33% 30.03 in 10.0 mi South 6.9 mph - N/A   Clear
1:15 PM 51.8 °F - 23.0 °F 33% 30.04 in 10.0 mi South 5.8 mph - N/A   Clear
1:35 PM 53.6 °F - 24.8 °F 33% 30.03 in 10.0 mi SE 6.9 mph - N/A   Clear
1:55 PM 55.4 °F - 24.8 °F 31% 30.03 in 10.0 mi ESE 8.1 mph - N/A   Clear
2:15 PM 55.4 °F - 24.8 °F 31% 30.04 in 10.0 mi East 9.2 mph - N/A   Clear
2:35 PM 55.4 °F - 21.2 °F 26% 30.04 in 10.0 mi ENE 8.1 mph - N/A   Clear
2:55 PM 55.4 °F - 19.4 °F 25% 30.05 in 10.0 mi NNE 3.5 mph - N/A   Clear
3:15 PM 55.4 °F - 19.4 °F 25% 30.06 in 10.0 mi NNE 10.4 mph - N/A   Clear
3:35 PM 53.6 °F - 17.6 °F 24% 30.08 in 10.0 mi NE 16.1 mph 25.3 mph N/A   Clear
3:55 PM 51.8 °F - 15.8 °F 24% 30.09 in 10.0 mi NE 15.0 mph 20.7 mph N/A   Clear
4:15 PM 51.8 °F - 15.8 °F 24% 30.10 in 10.0 mi NE 17.3 mph - N/A   Clear
4:35 PM 50.0 °F - 14.0 °F 24% 30.11 in 10.0 mi ENE 18.4 mph 23.0 mph N/A   Clear
4:55 PM 48.2 °F - 14.0 °F 25% 30.11 in 10.0 mi NE 18.4 mph 23.0 mph N/A   Clear
5:15 PM 46.4 °F 41.1 °F 12.2 °F 25% 30.12 in 10.0 mi NE 11.5 mph 19.6 mph N/A   Clear
5:35 PM 46.4 °F 40.4 °F 10.4 °F 23% 30.13 in 10.0 mi ENE 13.8 mph 21.9 mph N/A   Clear
5:55 PM 44.6 °F 38.1 °F 10.4 °F 25% 30.14 in 10.0 mi ENE 13.8 mph 25.3 mph N/A   Clear
6:15 PM 44.6 °F 37.4 °F 8.6 °F 23% 30.15 in 10.0 mi ENE 16.1 mph 31.1 mph N/A   Clear
6:35 PM 44.6 °F 38.4 °F 8.6 °F 23% 30.15 in 10.0 mi ENE 12.7 mph 19.6 mph N/A   Clear
6:55 PM 42.8 °F 36.2 °F 8.6 °F 25% 30.16 in 10.0 mi NE 12.7 mph 20.7 mph N/A   Clear
7:15 PM 42.8 °F 37.5 °F 8.6 °F 25% 30.17 in 10.0 mi ENE 9.2 mph 18.4 mph N/A   Clear
7:35 PM 42.8 °F 35.8 °F 6.8 °F 23% 30.17 in 10.0 mi ENE 13.8 mph 19.6 mph N/A   Clear
7:55 PM 42.8 °F 37.5 °F 6.8 °F 23% 30.17 in 10.0 mi NE 9.2 mph 18.4 mph N/A   Clear
8:15 PM 41.0 °F 34.7 °F 6.8 °F 24% 30.17 in 10.0 mi NE 10.4 mph 16.1 mph N/A   Clear
8:35 PM 41.0 °F 34.3 °F 6.8 °F 24% 30.18 in 10.0 mi NE 11.5 mph 23.0 mph N/A   Clear
8:55 PM 41.0 °F 33.9 °F 5.0 °F 23% 30.19 in 10.0 mi NE 12.7 mph - N/A   Clear
9:15 PM 39.2 °F 33.6 °F 5.0 °F 24% 30.19 in 10.0 mi NNE 8.1 mph - N/A   Clear
9:35 PM 39.2 °F 34.2 °F 5.0 °F 24% 30.19 in 10.0 mi NE 6.9 mph - N/A   Clear
9:55 PM 37.4 °F 33.8 °F 6.8 °F 28% 30.20 in 10.0 mi NW 4.6 mph - N/A   Clear
10:15 PM 37.4 °F 30.3 °F 6.8 °F 28% 30.20 in 10.0 mi North 10.4 mph - N/A   Clear
10:35 PM 37.4 °F 30.8 °F 10.4 °F 33% 30.20 in 10.0 mi NNW 9.2 mph - N/A   Clear
10:55 PM 39.2 °F 32.5 °F 8.6 °F 28% 30.20 in 10.0 mi WNW 10.4 mph - N/A   Clear
11:15 PM 37.4 °F 28.9 °F 8.6 °F 30% 30.21 in 10.0 mi West 13.8 mph - N/A   Clear
11:35 PM 37.4 °F 29.3 °F 8.6 °F 30% 30.21 in 10.0 mi West 12.7 mph - N/A   Clear
11:55 PM 37.4 °F 30.8 °F 6.8 °F 28% 30.22 in 10.0 mi WNW 9.2 mph - N/A   Clear